Regional Weather Roundup
Issued by NWS Newport/Morehead, NC

Current Version | Previous Version | Graphics & Text | Print | Product List | Glossary Off
Versions: 1 2 3 4 5 6 7 8 9 10 11 12 13 14 15 16 17 18 19 20 21 22 23 24 25 26 27 28 29 30 31 32 33 34 35 36 37 38 39 40 41 42 43 44 45 46 47 48 49 50
000 ASUS42 KMHX 261322 RWRMHX WEATHER ROUNDUP FOR EASTERN NORTH CAROLINA NATIONAL WEATHER SERVICE NEWPORT/MOREHEAD CITY NC 800 AM EST FRI DEC 26 2014 NOTE: "FAIR" INDICATES FEW OR NO CLOUDS BELOW 12,000 FEET WITH NO SIGNIFICANT WEATHER AND/OR OBSTRUCTIONS TO VISIBILITY NCZ015>017-031-032-045>047-102-103-261400- NORTH COAST CITY SKY/WX TMP DP RH WIND PRES REMARKS EDENTON N/A 33 32 96 CALM 30.33R ELIZABETH CITY CLEAR 39 34 82 W3 30.32R KITTY HAWK SUNNY 45 43 95 CALM 30.30S MANTEO CLEAR 36 36 100 CALM 30.32R $$ NCZ045>047-081-094-103-104-261400- CENTRAL COAST CITY SKY/WX TMP DP RH WIND PRES REMARKS FRISCO CLEAR 46 43 89 N6 30.32R SWANQUARTER N/A 43 N/A N/A NW1 30.30S $$ NCZ095-097-098-100-101-261400- SOUTHERN COAST CITY SKY/WX TMP DP RH WIND PRES REMARKS BEAUFORT CLEAR 38 38 100 CALM 30.33R CEDAR ISLAND N/A 50 N/A N/A N2 30.36S JACKSONVILLE CLEAR 37 35 92 CALM 30.32R PINEY ISLAND SUNNY 49 41 74 N5 30.33R WILMINGTON PTCLDY 37 36 96 CALM 30.33R $$ NCZ011>013-027>030-043-044-078>080-089-090>093-098-261400- COASTAL PLAIN CITY SKY/WX TMP DP RH WIND PRES REMARKS AHOSKIE CLEAR 30 29 96 CALM 30.34R CLINTON FOG 34 34 100 CALM 30.35R VSB 1/2 ELIZABETHTOWN PTCLDY 37 35 94 CALM 30.34R GOLDSBORO FOG 34 34 100 CALM 30.33R VSB<1/4 GREENVILLE CLEAR 34 34 100 CALM 30.34R HAVELOCK PTCLDY 35 33 92 CALM 30.34R KENANSVILLE PTCLDY 33 33 100 CALM 30.35R KINSTON PTCLDY 32 32 100 CALM 30.33R NEW BERN FOG 37 36 96 CALM 30.34R VSB 1 RICHLANDS PTCLDY 34 30 86 CALM 30.34R ROCKY MOUNT CLEAR 32 30 92 CALM 30.33R WASHINGTON CLEAR 34 32 93 CALM 30.34R WHITEVILLE PTCLDY 37 36 95 CALM 30.34R $$ AMZ130-135-150-152-154-156-158-170-250-252-270-ANZ085-086-088-633-658-670-261400- MARINE OBSERVATIONS STATION/POSITION TIME TEMP WIND PRES WAVE SWELL AIR SEA DIR/SP/G HT/PER HT/PER (UTC) (F) (DEG/KT/KT) (MB) (FT/S) (FT/S) CHESAPEAKE LIGHT 1300 48 50/ 8/ 8 1027.1 64 E VA BEACH 1300 51 52 30/ 6/ 8 1025.6 2/ 9 2/ 9 DUCK 1300 48 50 CALM 1025.6 2 E DUCK 1300 50 N/A 2/ 7 10 NE DUCK 1300 50 N/A 2/ 8 OREGON INLET 1300 47 54 CALM / 1 1026.4 13E OREGON INLT 1300 50 N/A 3/ 8 2/11 HATTERAS CG 1300 49 55 360/ 6/ 7 1027.1 DIAMOND BUOY 1300 57 1026.5 3/ 7 17 S OCRACOKE NOT AVBL CAPE LOOKOUT 1300 48 360/ 7/ 7 1026.6 BEAUFORT LAB 1300 46 54 10/ 4/ 5 1025.8 30 SE NEW RIVER 1300 56 60 30/ 8/ 10 1026.9 3/ 7 2/ 7 5 SE WRIGHTSVLE NOT AVBL 225 S CAPE HAT 1225 68 71 60/ 10/ 14 1024.5 5/ 7 5/ 7 41 SE CHARLESTON 1300 62 71 40/ 4/ 6 1025.1 2/ 7 2/ 7 $$

USA.gov is the U.S. government's official web portal to all federal, state and local government web resources and services.